^^
Station Historical Data
Daily Summary for Nil La, TWC- Units:  English    Metric   Both
« Previous Day
Next Day »
Daily Weekly Monthly Yearly Custom
  High: Low: Average:
Temperature: TemperatureC °F 12.9 °F 15.2 °F
Dew Point: DewpointC °F 11.5 °F 13.4 °F
Humidity: Humidity% 76% 88%
Wind Speed: WindSpeedKMHmph 0.0mph 0.1mph
Wind Gust: WindSpeedGustKMHmph - -
Wind- - South
Pressure: PressurehPa in 1014.0 in -
Precipitation: 0.0 in    
Historical Graphs
 
 
Tabular Data for Nil La, TWC-
Time Temperature Dew Point Pressure Wind Wind Speed Wind Gust Humidity Rainfall Rate (Hourly) solar Conditions
TemperatureC °F DewpointC °F PressurehPa in Calm     Humidity% HourlyPrecipMM in SoftwareType W/m2 Conditions
00:04 15.1 °F 12.9 °F 1015.7 in Calm     87% 0.0 in WeatherDisplay:10.37 W/m2 FEW
00:09 15.1 °F 12.9 °F 1015.7 in Calm     87% 0.0 in WeatherDisplay:10.37 W/m2 FEW
00:14 14.9 °F 13.0 °F 1015.7 in Calm     88% 0.0 in WeatherDisplay:10.37 W/m2 FEW
00:19 14.9 °F 13.0 °F 1015.7 in Calm     88% 0.0 in WeatherDisplay:10.37 W/m2 FEW
00:24 14.9 °F 13.0 °F 1015.6 in Calm     88% 0.0 in WeatherDisplay:10.37 W/m2 FEW
00:29 14.9 °F 13.0 °F 1015.6 in Calm     88% 0.0 in WeatherDisplay:10.37 W/m2 FEW
00:34 14.9 °F 13.0 °F 1015.5 in Calm     88% 0.0 in WeatherDisplay:10.37 W/m2 FEW
00:39 15.0 °F 13.0 °F 1015.5 in Calm     88% 0.0 in WeatherDisplay:10.37 W/m2 FEW
00:44 15.0 °F 13.0 °F 1015.5 in Calm     88% 0.0 in WeatherDisplay:10.37 W/m2 FEW
00:49 15.0 °F 13.0 °F 1015.5 in Calm     88% 0.0 in WeatherDisplay:10.37 W/m2 FEW
00:54 15.0 °F 13.0 °F 1015.5 in Calm     88% 0.0 in WeatherDisplay:10.37 W/m2 FEW
00:59 15.0 °F 13.0 °F 1015.5 in Calm     88% 0.0 in WeatherDisplay:10.37 W/m2 FEW
01:04 15.0 °F 13.0 °F 1015.5 in Calm     88% 0.0 in WeatherDisplay:10.37 W/m2 CLR
01:09 15.0 °F 13.0 °F 1015.4 in Calm     88% 0.0 in WeatherDisplay:10.37 W/m2 CLR
01:14 15.0 °F 13.6 °F 1015.4 in Calm     91% 0.0 in WeatherDisplay:10.37 W/m2 CLR
01:19 15.0 °F 13.6 °F 1015.4 in Calm     91% 0.0 in WeatherDisplay:10.37 W/m2 CLR
01:24 14.9 °F 13.2 °F 1015.3 in Calm     89% 0.0 in WeatherDisplay:10.37 W/m2 CLR
01:29 14.9 °F 13.1 °F 1015.4 in Calm     89% 0.0 in WeatherDisplay:10.37 W/m2 CLR
01:34 14.8 °F 13.1 °F 1015.4 in Calm     89% 0.0 in WeatherDisplay:10.37 W/m2 CLR
01:39 14.8 °F 13.1 °F 1015.3 in Calm     89% 0.0 in WeatherDisplay:10.37 W/m2 CLR
01:44 14.8 °F 13.1 °F 1015.3 in Calm     89% 0.0 in WeatherDisplay:10.37 W/m2 CLR
01:49 14.8 °F 13.1 °F 1015.2 in Calm     89% 0.0 in WeatherDisplay:10.37 W/m2 CLR
01:54 14.8 °F 13.1 °F 1015.2 in Calm     89% 0.0 in WeatherDisplay:10.37 W/m2 CLR
01:59 14.8 °F 13.1 °F 1015.2 in Calm     89% 0.0 in WeatherDisplay:10.37 W/m2 CLR
02:04 14.8 °F 13.1 °F 1015.2 in Calm     89% 0.0 in WeatherDisplay:10.37 W/m2 SCT
02:09 14.8 °F 13.0 °F 1015.2 in Calm     89% 0.0 in WeatherDisplay:10.37 W/m2 SCT
02:14 14.8 °F 13.0 °F 1015.0 in Calm     89% 0.0 in WeatherDisplay:10.37 W/m2 SCT
02:19 14.7 °F 12.9 °F 1015.0 in Calm     89% 0.0 in WeatherDisplay:10.37 W/m2 SCT
02:24 14.7 °F 12.9 °F 1015.0 in Calm     89% 0.0 in WeatherDisplay:10.37 W/m2 SCT
02:29 14.7 °F 12.9 °F 1014.9 in Calm     89% 0.0 in WeatherDisplay:10.37 W/m2 SCT
02:34 14.7 °F 12.9 °F 1014.9 in Calm     89% 0.0 in WeatherDisplay:10.37 W/m2 SCT
02:39 14.6 °F 12.8 °F 1014.9 in Calm     89% 0.0 in WeatherDisplay:10.37 W/m2 SCT
02:44 14.6 °F 12.8 °F 1014.9 in Calm     89% 0.0 in WeatherDisplay:10.37 W/m2 SCT
02:49 14.5 °F 12.7 °F 1014.9 in Calm     89% 0.0 in WeatherDisplay:10.37 W/m2 SCT
02:54 14.4 °F 12.7 °F 1014.9 in Calm     89% 0.0 in WeatherDisplay:10.37 W/m2 SCT
02:59 14.4 °F 12.8 °F 1014.8 in Calm     90% 0.0 in WeatherDisplay:10.37 W/m2 SCT
03:04 14.4 °F 12.8 °F 1014.8 in Calm     90% 0.0 in WeatherDisplay:10.37 W/m2 SCT
03:09 14.3 °F 12.7 °F 1014.8 in Calm     90% 0.0 in WeatherDisplay:10.37 W/m2 SCT
03:14 14.3 °F 12.7 °F 1014.8 in Calm     90% 0.0 in WeatherDisplay:10.37 W/m2 SCT
03:19 14.3 °F 12.7 °F 1014.8 in Calm     90% 0.0 in WeatherDisplay:10.37 W/m2 SCT
03:24 14.3 °F 12.7 °F 1014.7 in Calm     90% 0.0 in WeatherDisplay:10.37 W/m2 SCT
03:29 14.3 °F 12.7 °F 1014.7 in Calm     90% 0.0 in WeatherDisplay:10.37 W/m2 SCT
03:34 14.3 °F 12.8 °F 1014.7 in Calm     91% 0.0 in WeatherDisplay:10.37 W/m2 FEW
03:39 14.2 °F 12.6 °F 1014.7 in Calm     90% 0.0 in WeatherDisplay:10.37 W/m2 FEW
03:44 14.2 °F 12.6 °F 1014.8 in Calm     90% 0.0 in WeatherDisplay:10.37 W/m2 FEW
03:49 14.2 °F 12.8 °F 1014.7 in Calm     91% 0.0 in WeatherDisplay:10.37 W/m2 FEW
03:54 14.2 °F 12.6 °F 1014.7 in Calm     90% 0.0 in WeatherDisplay:10.37 W/m2 FEW
03:59 14.2 °F 12.6 °F 1014.6 in Calm     90% 0.0 in WeatherDisplay:10.37 W/m2 FEW
04:04 14.2 °F 12.8 °F 1014.6 in Calm     91% 0.0 in WeatherDisplay:10.37 W/m2 SCT
04:09 14.2 °F 12.8 °F 1014.6 in Calm     91% 0.0 in WeatherDisplay:10.37 W/m2 SCT
04:14 14.2 °F 12.8 °F 1014.6 in Calm     91% 0.0 in WeatherDisplay:10.37 W/m2 SCT
04:19 14.2 °F 12.7 °F 1014.6 in Calm     91% 0.0 in WeatherDisplay:10.37 W/m2 SCT
04:24 14.1 °F 12.6 °F 1014.6 in Calm     91% 0.0 in WeatherDisplay:10.37 W/m2 SCT
04:29 14.0 °F 12.4 °F 1014.5 in Calm     90% 0.0 in WeatherDisplay:10.37 W/m2 SCT
04:34 13.9 °F 12.3 °F 1014.6 in Calm     90% 0.0 in WeatherDisplay:10.37 W/m2 SCT
04:39 13.9 °F 12.3 °F 1014.6 in Calm     90% 0.0 in WeatherDisplay:10.37 W/m2 SCT
04:44 13.8 °F 12.4 °F 1014.5 in Calm     91% 0.0 in WeatherDisplay:10.37 W/m2 SCT
04:49 13.8 °F 12.2 °F 1014.5 in Calm     90% 0.0 in WeatherDisplay:10.37 W/m2 SCT
04:54 13.7 °F 12.1 °F 1014.5 in Calm     90% 0.0 in WeatherDisplay:10.37 W/m2 SCT
04:59 13.6 °F 11.9 °F 1014.5 in Calm     90% 0.0 in WeatherDisplay:10.37 W/m2 SCT
05:04 13.5 °F 12.1 °F 1014.5 in Calm     91% 0.0 in WeatherDisplay:10.37 W/m2 FEW
05:09 13.4 °F 12.0 °F 1014.5 in Calm     91% 0.0 in WeatherDisplay:10.37 W/m2 FEW
05:14 13.4 °F 11.9 °F 1014.5 in Calm     91% 0.0 in WeatherDisplay:10.37 W/m2 FEW
05:19 13.3 °F 11.9 °F 1014.5 in Calm     91% 0.0 in WeatherDisplay:10.37 W/m2 FEW
05:24 13.3 °F 11.8 °F 1014.5 in Calm     91% 0.0 in WeatherDisplay:10.37 W/m2 FEW
05:29 13.3 °F 11.8 °F 1014.5 in Calm     91% 0.0 in WeatherDisplay:10.37 W/m2 FEW
05:34 13.2 °F 11.8 °F 1014.4 in Calm     91% 0.0 in WeatherDisplay:10.37 W/m2 FEW
05:39 13.2 °F 11.7 °F 1014.4 in Calm     91% 0.0 in WeatherDisplay:10.37 W/m2 FEW
05:44 13.1 °F 11.7 °F 1014.4 in Calm     91% 0.0 in WeatherDisplay:10.37 W/m2 FEW
05:49 13.1 °F 11.6 °F 1014.4 in Calm     91% 0.0 in WeatherDisplay:10.37 W/m2 FEW
05:54 13.0 °F 11.6 °F 1014.3 in Calm     91% 0.0 in WeatherDisplay:10.37 W/m2 FEW
05:59 13.0 °F 11.6 °F 1014.3 in Calm     91% 0.0 in WeatherDisplay:10.37 W/m2 FEW
06:04 12.9 °F 11.5 °F 1014.3 in Calm     91% 0.0 in WeatherDisplay:10.37 W/m2 FEW
06:09 12.9 °F 11.5 °F 1014.3 in Calm     91% 0.0 in WeatherDisplay:10.37 W/m2 FEW
06:14 13.0 °F 11.6 °F 1014.3 in Calm     91% 0.0 in WeatherDisplay:10.37 W/m2 FEW
06:19 13.0 °F 11.6 °F 1014.3 in Calm     91% 0.0 in WeatherDisplay:10.37 W/m2 FEW
06:24 13.0 °F 11.6 °F 1014.2 in Calm     91% 0.0 in WeatherDisplay:10.37 W/m2 FEW
06:29 13.1 °F 11.6 °F 1014.1 in Calm     91% 0.0 in WeatherDisplay:10.37 W/m2 FEW
06:34 13.1 °F 11.6 °F 1014.1 in Calm     91% 0.0 in WeatherDisplay:10.37 W/m2 FEW
06:39 13.2 °F 11.7 °F 1014.2 in Calm     91% 0.0 in WeatherDisplay:10.37 W/m2 FEW
06:44 13.2 °F 11.8 °F 1014.2 in Calm     91% 0.0 in WeatherDisplay:10.37 W/m2 FEW
06:49 13.3 °F 11.9 °F 1014.3 in Calm     91% 0.0 in WeatherDisplay:10.37 W/m2 FEW
06:54 13.4 °F 12.0 °F 1014.3 in Calm     91% 0.0 in WeatherDisplay:10.37 W/m2 FEW
06:59 13.7 °F 12.2 °F 1014.3 in Calm     91% 0.0 in WeatherDisplay:10.37 W/m2 FEW
07:04 13.9 °F 12.5 °F 1014.3 in Calm     91% 0.0 in WeatherDisplay:10.37 W/m2 FEW
07:09 14.2 °F 12.7 °F 1014.4 in Calm     91% 0.0 in WeatherDisplay:10.37 W/m2 FEW
07:14 14.4 °F 12.9 °F 1014.4 in Calm     91% 0.0 in WeatherDisplay:10.37 W/m2 FEW
07:19 14.7 °F 13.2 °F 1014.3 in Calm     91% 0.0 in WeatherDisplay:10.37 W/m2 FEW
07:24 14.8 °F 13.4 °F 1014.3 in Calm     91% 0.0 in WeatherDisplay:10.37 W/m2 FEW
07:29 15.1 °F 13.6 °F 1014.3 in Calm     91% 0.0 in WeatherDisplay:10.37 W/m2 FEW
07:34 15.3 °F 13.9 °F 1014.2 in Calm     91% 0.0 in WeatherDisplay:10.37 W/m2 FEW
07:39 15.6 °F 14.2 °F 1014.2 in Calm     91% 0.0 in WeatherDisplay:10.37 W/m2 FEW
07:44 15.9 °F 14.5 °F 1014.2 in South 0.2 mph 1.6 mph 91% 0.0 in WeatherDisplay:10.37 W/m2 FEW
07:49 16.2 °F 14.8 °F 1014.2 in Calm     91% 0.0 in WeatherDisplay:10.37 W/m2 FEW
07:54 16.5 °F 15.0 °F 1014.3 in Calm     91% 0.0 in WeatherDisplay:10.37 W/m2 FEW
07:59 16.7 °F 15.2 °F 1014.3 in Calm     91% 0.0 in WeatherDisplay:10.37 W/m2 FEW
08:04 17.1 °F 15.6 °F 1014.3 in Calm     91% 0.0 in WeatherDisplay:10.37 W/m2 FEW
08:09 17.5 °F 16.0 °F 1014.3 in Calm     91% 0.0 in WeatherDisplay:10.37 W/m2 FEW
08:14 17.8 °F 16.3 °F 1014.1 in South 0.2 mph 1.6 mph 91% 0.0 in WeatherDisplay:10.37 W/m2 FEW
08:19 18.3 °F 16.8 °F 1014.2 in Calm   1.6 mph 91% 0.0 in WeatherDisplay:10.37 W/m2 FEW
08:24 18.8 °F 17.3 °F 1014.3 in Calm     91% 0.0 in WeatherDisplay:10.37 W/m2 FEW
08:29 19.3 °F 17.5 °F 1014.3 in Calm     89% 0.0 in WeatherDisplay:10.37 W/m2 FEW
08:34 19.8 °F 17.8 °F 1014.2 in NW 1.4 mph 6.4 mph 88% 0.0 in WeatherDisplay:10.37 W/m2 FEW
08:39 20.2 °F 17.6 °F 1014.2 in South 0.2 mph 1.6 mph 85% 0.0 in WeatherDisplay:10.37 W/m2 FEW
08:44 20.7 °F 17.9 °F 1014.2 in Calm     84% 0.0 in WeatherDisplay:10.37 W/m2 FEW
08:49 21.2 °F 17.8 °F 1014.2 in ENE 0.3 mph 5.6 mph 81% 0.0 in WeatherDisplay:10.37 W/m2 FEW
08:54 21.3 °F 17.7 °F 1014.1 in Calm   1.9 mph 80% 0.0 in WeatherDisplay:10.37 W/m2 FEW
08:59 21.4 °F 17.8 °F 1014.1 in Calm     80% 0.0 in WeatherDisplay:10.37 W/m2 FEW
09:04 21.4 °F 17.8 °F 1014.0 in Calm     80% 0.0 in WeatherDisplay:10.37 W/m2 SCT
09:09 21.4 °F 17.7 °F 1014.1 in South 0.8 mph 5.6 mph 79% 0.0 in WeatherDisplay:10.37 W/m2 SCT
09:14 21.6 °F 17.3 °F 1014.1 in Calm     77% 0.0 in WeatherDisplay:10.37 W/m2 SCT
09:19 21.7 °F 17.4 °F 1014.1 in Calm   1.9 mph 77% 0.0 in WeatherDisplay:10.37 W/m2 SCT
09:24 21.7 °F 17.4 °F 1014.1 in Calm   1.9 mph 77% 0.0 in WeatherDisplay:10.37 W/m2 SCT
09:29 21.6 °F 17.2 °F 1014.1 in Calm     76% 0.0 in WeatherDisplay:10.37 W/m2 SCT
09:34 21.6 °F 17.2 °F 1014.1 in Calm     76% 0.0 in WeatherDisplay:10.37 W/m2 BKN
09:39 21.6 °F 17.2 °F 1014.2 in South 3.5 mph 13.0 mph 76% 0.0 in WeatherDisplay:10.37 W/m2 BKN
Tuulensuunkaari, Veikkola, Suomi
Compliments of Weather Underground - 1.75 mb